Погода в Вольгинском

Россия / Владимирская область     55°56′58″N   39°14′24″E
темп.,
°C
ветер,
м/с
пор.,
м/с
влажн.,
%
обл.,
%
осадки,
мм/ч
давл.,
гПа
погр.,
м
20 января, ср
ср2000:00−15зсз239798 0.1 101684
03:00−15зсз239792 0.1 101781
06:00−14з239797 0.1 101668
09:00−14з259792 0.1 101792
12:00−10з369394 0.0 1018294
15:00−9з379496 0.1 1018386
18:00−12з389698 0.0 1019209
21:00−14з389685 0.1 1020195
21 января, чт
чт2100:00−16зюз259775 0.0 102199
03:00−17зюз259638 0.0 1021110
06:00−17юз279467 0.0 1020151
09:00−16ююз379383 0.0 1018245
12:00−12ю3891100 0.1 1017338
15:00−11ююз3894100 1.5 1014513
18:00−11юз2696100 0.7 1014307
21:00−11юз1297100 0.9 101474
22 января, пт
пт2200:00−13юз119797 0.0 101420
03:00−13ююв129798 0.1 101520
06:00−11юв2496100 0.1 1014138
09:00−9юв3595100 0.7 1014200
12:00−6ююв3695100 0.6 1013214
15:00−3ююв3597100 1.3 1013192
18:000ю3897100 0.1 1012416
21:000ю3897100 0.1 1012464
23 января, сб
сб2300:000ю4999100 0.8 1011412
03:00+1ююз31099100 1.4 1010441
06:00+1юз3999100 0.3 1009423
09:00+1ююз41098100 1.0 1010355
12:00+1ююз41097100 1.1 1010446
15:00+1ююз41198100 1.8 1010429
18:00+1ююз41098100 0.2 1011427
21:00+1ююз4999100 0.9 1011332
24 января, вс
вс2400:00+1ююз3999100 0.4 1012311
03:00+1ююз3999100 1.1 1012303
06:00+1ю3899100 0.1 1012253
09:00+1ю3899100 0.1 1012284
12:00+1ю49100100 0.0 1012321
15:00+1ююв4999100 0.0 1012362
18:00+1ююв41099100 0.0 1012324
21:00+1ююв41298100 0.1 1012519